Regional Weather Roundup
Issued by NWS

Home | Current Version | Previous Version | Graphics & Text | Print | Product List | Glossary On
Versions: 1 2 3 4 5 6 7 8 9 10 11 12 13 14 15 16 17 18 19 20 21 22 23 24 25 26 27 28 29
000
ASUS45 KBOU 301207
RWRCO

WEATHER ROUNDUP FOR COLORADO
NATIONAL WEATHER SERVICE DENVER/BOULDER CO
600 AM MDT THU OCT 30 2014

NOTE: "FAIR" INDICATES FEW OR NO CLOUDS BELOW 12000 FEET WITH NO
SIGNIFICANT WEATHER AND/OR OBSTRUCTIONS TO VISIBILITY.

COZ001>005-013-030-031-301300-
...NORTHWEST COLORADO...

CITY           SKY/WX    TMP DP  RH WIND       PRES   REMARKS
CRAIG          PTCLDY    25  21  85 CALM      30.39R
HAYDEN         PTCLDY    30  21  69 E10       30.38S WCI  21
MEEKER         CLEAR     29  22  75 CALM      30.39S
MOUNT WERNER   NOT AVBL
STEAMBOAT SPGS CLOUDY    33  24  69 CALM      30.40S
WALDEN         PTCLDY    30  23  74 SE6       30.39S WCI  24
$$

COZ006>008-011-301300-
...WEST CENTRAL VALLEYS...

CITY           SKY/WX    TMP DP  RH WIND       PRES   REMARKS
GRAND JUNCTION PTCLDY    36  21  54 E5        30.33R
MONTROSE       CLEAR     33  21  61 S9        30.39R WCI  25
EAGLE          PTCLDY    27  19  74 SE3       30.46R
RIFLE          CLEAR     30  19  63 S3        30.39R
DELTA          CLEAR     34  20  56 NE3       30.38R
NUCLA          CLEAR     34  18  51 E7        30.39S WCI  28
$$

COZ017>023-064>068-301300-
...SOUTHWEST COLORADO...

CITY           SKY/WX    TMP DP  RH WIND       PRES   REMARKS
DURANGO        PTCLDY    29  21  72 NE3       30.35R
CORTEZ         CLEAR     29  17  61 NE8       30.32S WCI  21
PAGOSA SPRINGS PTCLDY    32  20  63 CALM      30.38S
TELLURIDE      CLEAR     37  12  36 E3        30.47S
WOLF CREEK PAS CLEAR     36  16  44 N5        30.55S
$$

COZ009-010-012-014-032>034-037-058>063-301300-
...CENTRAL COLORADO...

CITY           SKY/WX    TMP DP  RH WIND       PRES   REMARKS
ASPEN          PTCLDY    27  18  69 S6        30.43R WCI  20
BUENA VISTA    CLEAR     25  17  71 W5        30.40S WCI  19
COPPER MTN     PTCLDY    30  16  55 W15       30.52S WCI  19
BERTHOUD PASS  CLOUDY    23  19  86 NW31G39   30.49R WCI   5
COTTONWOOD PAS CLEAR     43  12  28 S6        30.45R
GUNNISON       PTCLDY    21   9  58 CALM      30.47R
KREMMLING      CLOUDY    25  21  86 CALM        N/A
LEADVILLE      PTCLDY    30  13  49 NE6       30.44S WCI  24
MONARCH PASS   PTCLDY    30  14  51 W21       30.62S WCI  17
SALIDA         CLEAR     36  16  43 CALM      30.46R
SUNLIGHT       PTCLDY    36  18  48 CALM      30.53R
WILKERSON PASS NOT AVBL
$$

COZ069>075-301300-
...SAN LUIS VALLEY/SANGRE DE CRISTO MOUNTAINS...

CITY           SKY/WX    TMP DP  RH WIND       PRES   REMARKS
ALAMOSA        MOCLDY    23  14  68 CALM      30.39R
LA VETA PASS   CLEAR     37  12  35 CALM      30.46R
SAGUACHE       NOT AVBL
$$

COZ035-036-038>040-301300-
...NORTHERN COLORADO FRONT RANGE...

CITY           SKY/WX    TMP DP  RH WIND       PRES   REMARKS
DENVER INTL AP PTCLDY    40  24  53 W9        30.34R
DMNS CITY PARK   N/A     38  24  57 SE3       30.35R
AURORA         PTCLDY    44  23  44 VRB6      30.36R
FRONT RANGE AP CLEAR     43  27  52 W6        30.34R
ERIE MUNI ARPT CLEAR     36  26  67 CALM      30.34R
BOULDER MUN AP CLEAR     43  23  45 SW5       30.34R
CENTENNIAL     CLEAR     40  25  55 CALM      30.35R
BROOMFIELD     PTCLDY    45  25  45 W5        30.35R
FORT COLLINS   CLEAR     46  25  42 N3        30.34R
LONGMONT       CLEAR     39  27  62 NW3       30.36R
$$

COZ041-046-047-076>085-087-088-301300-
...PIKES PEAK/PALMER DIVIDE AND SOUTHERN FOOTHILLS...

CITY           SKY/WX    TMP DP  RH WIND       PRES   REMARKS
COLO. SPRINGS  CLEAR     44  23  43 NW9       30.35R
A. F. ACADEMY  CLEAR     33  22  62 N10       30.35R WCI  25
ELLICOTT       CLEAR     40  22  48 N9        30.32R
FALCON         CLEAR     40  20  44 N10       30.36R
FORT CARSON    CLEAR     43  23  45 N13       30.32R
LIMON          CLEAR     32  22  66 NW3       30.31R
MONUMENT HILL  CLEAR     32  21  64 NW5       30.36R WCI  27
TRINIDAD       PTCLDY    34  17  50 W8        30.32R WCI  27
$$

COZ042>045-048>051-090-091-301300-
...NORTHEAST COLORADO...

CITY           SKY/WX    TMP DP  RH WIND       PRES   REMARKS
GREELEY ARPT   CLEAR     36  21  55 SW8       30.33R
AKRON          CLEAR     35  24  64 W8        30.28R WCI  29
BURLINGTON     CLEAR     37  23  56 NW9       30.26R
WRAY           CLEAR     35  26  69 SW7       30.25R WCI  29
STERLING       CLEAR     41  30  65 NW12      30.27R
HOLYOKE        CLEAR     41  28  60 W9        30.25R
FORT MORGAN    CLEAR     36  24  60 S5        30.31R
$$

COZ086-089-092>099-301300-
...SOUTHEAST COLORADO...

CITY           SKY/WX    TMP DP  RH WIND       PRES   REMARKS
PUEBLO         CLEAR     34  22  61 W7        30.30R WCI  28
LA JUNTA       CLEAR     39  23  52 W14       30.27R
LAMAR          CLEAR     33  25  72 SW5       30.23R WCI  29
SPRINGFIELD      N/A     43  25  49 N10       30.24R
$$



USA.gov is the U.S. government's official web portal to all federal, state and local government web resources and services.